Tracking 33068 objects as of 24-Jan-2026
HD Live streaming from Space Station
objects crossing your sky now

TISAT 1

Track TISAT 1 now!
10-day predictions
TISAT 1 is classified as:


NORAD ID: 36799
Int'l Code: 2010-035E
Perigee: 493.8 km
Apogee: 499.9 km
Inclination: 98.1 °
Period: 94.4 minutes
Semi major axis: 6867 km
RCS: 0.056 m2 (small)
Launch date: July 12, 2010
Source: (SWTZ)
Launch site: SRIHARIKOTA (SRI)

Uplink (MHz): 145.980
Downlink (MHz): 437.305
Beacon (MHz): 145.980
Mode: FM AFSK PSK CW
Call sign: HB9DE
Status: Inactive

Your satellite tracking list
Your tracking list is empty




NASA's NSSDC Master Catalog

Two Line Element Set (TLE):
1 36799U 10035E   26024.05152397  .00034376  00000-0  13608-2 0  9992
2 36799  98.0622 318.6196 0004486  56.2761 303.8902 15.25354953845684
Source of the keplerian elements: Caltech